Flag for United Kingdom Weather past 2 weeks in Chester, England, United Kingdom

Now
31 °F

Chilly.


Feels Like: 31 °F
Forecast: 33 / 43 °F
Wind: 1 mph from North

Location: Hawarden

Current Time: Dec 29, 2014 at 3:19:25 AM

Latest Report: Dec 29, 2014 at 2:00 AM


Visibility: 15 mi

Pressure: 30.69 "Hg

Humidity: 92%

Dew point: 29 °F

Location of ChesterLocation

Historic Weather in Chester — Graph

°F

Chester temperature yesterday

Maximum temperature yesterday: 41 °F (at 2:00 PM)
Minimum temperature yesterday: 27 °F (at 8:00 AM)
Average temperature yesterday: 33 °F

Past Weeks' High & Low Weather Summary

 TemperatureHumidityPressure
High57 °F (Dec 22, 1:00 PM)98% (Dec 28, 9:00 AM)30.69 "Hg (Dec 28, 9:00 AM)
Low27 °F (Dec 28, 8:00 AM)56% (Dec 24, 11:00 AM)29.56 "Hg (Dec 17, 4:00 AM)
Average46 °F82%29.98 "Hg
* Reported Dec 14 2:00 AM — Dec 29 2:00 AM, Chester, Weather by CustomWeather, © 2014

Note: Actual official high and low records may vary slightly from our data, if they occured in-between our weather recording intervals... More about our weather records

Advertising

Chester weather history for previous 24 hours

 ConditionsComfort  
Time TempWeatherWind HumidityBarometerVisibility
2:00 AM
Dec 29
31 °FChilly.1 mph92%30.69 "Hg15 mi
1:00 AM30 °FChilly.3 mph94%30.68 "Hg10 mi
12:00 AM29 °FChilly.3 mph93%30.68 "Hg7 mi
11:00 PM
Dec 28
32 °FChilly.3 mph88%30.68 "Hg15 mi
10:00 PM30 °FChilly.6 mph90%30.68 "Hg8 mi
9:00 PM33 °FChilly.1 mph89%30.66 "Hg11 mi
8:00 PM32 °FChilly.1 mph89%30.66 "Hg14 mi
7:00 PM33 °FChilly.1 mph90%30.65 "Hg16 mi
6:00 PM32 °FChilly.1 mph89%30.63 "Hg7 mi
5:00 PM33 °FChilly.6 mph90%30.61 "Hg10 mi
4:00 PM34 °FChilly.6 mph85%30.60 "Hg8 mi
3:00 PM40 °FQuite cool.2 mph79%30.58 "Hg8 mi
2:00 PM41 °FQuite cool.No wind79%30.56 "Hg7 mi
1:00 PM39 °FChilly.2 mph87%30.55 "Hg8 mi
12:00 PM38 °FSmoke.1 mph84%30.55 "Hg6 mi
11:00 AM33 °FSmoke.1 mph93%30.53 "Hg3 mi
10:00 AM30 °FFog.No wind98%30.50 "Hg3 mi
9:00 AM28 °FChilly.No wind98%30.47 "Hg3 mi
8:00 AM27 °FChilly.No wind97%30.43 "Hg1 mi
7:00 AM29 °FFog.3 mph96%30.39 "Hg3 mi
6:00 AM30 °FFog.2 mph95%30.35 "Hg4 mi
5:00 AM34 °FChilly.5 mph93%30.32 "Hg8 mi
4:00 AM34 °FChilly.3 mph92%30.28 "Hg12 mi
3:00 AM34 °FChilly.6 mph93%30.24 "Hg9 mi
Weather by CustomWeather, © 2014

See weather overviewHow to use our weather pages